Location: Piotrkow Trybunalski
(51.4000°N, 19.6830°E)
Time: 05:15:19
(UTC+02:00)

A-11 Canister half - Pass Details

Date: 02 June 2024
Orbit: 1525 x 1683 km, 47.3° (Epoch: 14 June)

Event Time Altitude Azimuth Distance (km) Brightness Sun altitude
Rises 01:21:55 0° 287° (WNW) 4,731 11.7 -15.8°
Reaches altitude 10° 01:25:18 10° 278° (W) 3,765 11.0 -15.7°
Maximum altitude 01:33:29 34° 219° (SW) 2,423 9.6 -15.4°
Drops below altitude 10° 01:41:53 10° 160° (SSE) 3,863 10.6 -15.1°
Enters shadow 01:41:56 10° 159° (SSE) 3,876 10.6 -15.1°
